Weather History for Delaware, OH

Change the Weather History Date:

Friday, December 13, 2013

  Actual Average Record
Temperature  
Mean Temperature 20 °F -  
Max Temperature 32 °F 42 °F 60 °F (1991)
Min Temperature 10 °F 26 °F -8 °F (1962)
Degree Days  
Heating Degree Days 45    
Moisture  
Dew Point 13 °F    
Average Humidity 66    
Maximum Humidity 74    
Minimum Humidity 55    
Precipitation  
Precipitation 0.00 in - - ()
Sea Level Pressure  
Sea Level Pressure 30.22 in    
Wind  
Wind Speed 5 mph (South)    
Max Wind Speed 8 mph    
Max Gust Speed -    
Visibility 10 miles    
Events      
Averages and records for this station are not official NWS values.
T = Trace of Precipitation, MM = Missing Value Source: NWS Daily Summary

Daily Weather History Graph

Daily Weather History Graph

Search for Another Location

Airport:

Trip Planner

Search our weather history database for the weather conditions in past years. The results will help you decide how hot, cold, wet, or windy it might be!

Date:

Astronomy

Dec. 13, 2013 Rise Set
Actual Time 7:46 AM EST 5:06 PM EST
Civil Twilight 7:16 AM EST 5:37 PM EST
Nautical Twilight 6:41 AM EST 6:11 PM EST
Astronomical Twilight 6:08 AM EST 6:44 PM EST
Moon 2:49 PM EST (12/13) 4:07 AM EST (12/13)
Length of Visible Light 10h 21m
Length of Day
9h 20m
Waxing Gibbous, 88% of the Moon is Illuminated
Dec 13
Waxing Gibbous
Dec 17
Full
Dec 25
Last Quarter
Jan 1
New
Jan 7
First Quarter

Hourly Weather History & Observations

Time (EST) Temp. Windchill Dew Point Humidity Pressure Visibility Wind Dir Wind Speed Gust Speed Precip Events Conditions
12:17 AM 12.2 °F 2.9 °F 3.2 °F 67% 30.27 in 10.0 mi SW 5.8 mph - N/A   Clear
12:38 AM 14.0 °F 5.1 °F 3.2 °F 62% 30.27 in 10.0 mi SW 5.8 mph - N/A   Clear
12:58 AM 14.0 °F 5.1 °F 3.2 °F 62% 30.26 in 10.0 mi SW 5.8 mph - N/A   Clear
1:17 AM 14.0 °F 6.5 °F 3.2 °F 62% 30.26 in 10.0 mi SW 4.6 mph - N/A   Clear
1:38 AM 14.0 °F 5.1 °F 3.2 °F 62% 30.26 in 10.0 mi SW 5.8 mph - N/A   Clear
1:58 AM 14.0 °F 6.5 °F 3.2 °F 62% 30.26 in 10.0 mi SW 4.6 mph - N/A   Clear
2:18 AM 14.0 °F 8.2 °F 1.4 °F 57% 30.26 in 10.0 mi SW 3.5 mph - N/A   Clear
2:38 AM 14.0 °F 6.5 °F 1.4 °F 57% 30.26 in 10.0 mi SW 4.6 mph - N/A   Clear
2:58 AM 14.0 °F 8.2 °F 1.4 °F 57% 30.26 in 10.0 mi SSW 3.5 mph - N/A   Clear
3:18 AM 12.2 °F 4.3 °F 1.4 °F 62% 30.26 in 10.0 mi SSW 4.6 mph - N/A   Clear
3:38 AM 10.4 °F 0.8 °F 1.4 °F 67% 30.25 in 10.0 mi South 5.8 mph - N/A   Clear
3:58 AM 12.2 °F 2.9 °F 3.2 °F 67% 30.25 in 10.0 mi South 5.8 mph - N/A   Clear
4:18 AM 14.0 °F 6.5 °F 3.2 °F 62% 30.25 in 10.0 mi South 4.6 mph - N/A   Clear
4:38 AM 12.2 °F 2.9 °F 3.2 °F 67% 30.24 in 10.0 mi South 5.8 mph - N/A   Scattered Clouds
4:58 AM 12.2 °F 2.9 °F 3.2 °F 67% 30.23 in 10.0 mi South 5.8 mph - N/A   Mostly Cloudy
5:18 AM 14.0 °F 6.5 °F 5.0 °F 67% 30.23 in 10.0 mi South 4.6 mph - N/A   Scattered Clouds
5:38 AM 14.0 °F 6.5 °F 5.0 °F 67% 30.23 in 10.0 mi South 4.6 mph - N/A   Scattered Clouds
5:57 AM 14.0 °F 6.5 °F 6.8 °F 73% 30.22 in 10.0 mi South 4.6 mph - N/A   Overcast
6:18 AM 17.6 °F 10.7 °F 8.6 °F 68% 30.22 in 10.0 mi South 4.6 mph - N/A   Overcast
6:38 AM 19.4 °F 11.5 °F 8.6 °F 63% 30.23 in 10.0 mi South 5.8 mph - N/A   Overcast
6:57 AM 19.4 °F 10.4 °F 10.4 °F 68% 30.23 in 10.0 mi South 6.9 mph - N/A   Overcast
7:18 AM 19.4 °F 11.5 °F 10.4 °F 68% 30.23 in 10.0 mi South 5.8 mph - N/A   Overcast
7:38 AM 19.4 °F 11.5 °F 10.4 °F 68% 30.23 in 10.0 mi South 5.8 mph - N/A   Overcast
7:57 AM 19.4 °F 14.3 °F 12.2 °F 74% 30.23 in 10.0 mi South 3.5 mph - N/A   Overcast
8:18 AM 19.4 °F 11.5 °F 10.4 °F 68% 30.23 in 10.0 mi SSW 5.8 mph - N/A   Mostly Cloudy
8:38 AM 19.4 °F 11.5 °F 10.4 °F 68% 30.24 in 10.0 mi SSW 5.8 mph - N/A   Scattered Clouds
8:57 AM 21.2 °F 12.6 °F 10.4 °F 63% 30.24 in 10.0 mi SSW 6.9 mph - N/A   Clear
9:18 AM 21.2 °F 13.6 °F 10.4 °F 63% 30.24 in 10.0 mi SSW 5.8 mph - N/A   Clear
9:38 AM 21.2 °F 12.6 °F 10.4 °F 63% 30.25 in 10.0 mi SW 6.9 mph - N/A   Clear
9:58 AM 23.0 °F 15.8 °F 10.4 °F 59% 30.25 in 10.0 mi SSW 5.8 mph - N/A   Clear
10:18 AM 23.0 °F 15.8 °F 12.2 °F 63% 30.25 in 10.0 mi SSW 5.8 mph - N/A   Clear
10:38 AM 23.0 °F 15.8 °F 12.2 °F 63% 30.24 in 10.0 mi SW 5.8 mph - N/A   Clear
10:58 AM 24.8 °F 17.9 °F 12.2 °F 59% 30.25 in 10.0 mi SSW 5.8 mph - N/A   Clear
11:18 AM 24.8 °F 17.9 °F 12.2 °F 59% 30.25 in 10.0 mi South 5.8 mph - N/A   Clear
11:38 AM 26.6 °F 19.1 °F 12.2 °F 55% 30.25 in 10.0 mi SSW 6.9 mph - N/A   Clear
11:58 AM 26.6 °F 20.0 °F 12.2 °F 55% 30.23 in 10.0 mi SSW 5.8 mph - N/A   Clear
12:18 PM 26.6 °F 19.1 °F 12.2 °F 55% 30.23 in 10.0 mi SSW 6.9 mph - N/A   Clear
12:38 PM 28.4 °F 21.2 °F 14.0 °F 55% 30.22 in 10.0 mi SSW 6.9 mph - N/A   Clear
12:58 PM 28.4 °F 22.2 °F 14.0 °F 55% 30.22 in 10.0 mi SSW 5.8 mph - N/A   Clear
1:18 PM 28.4 °F 20.4 °F 14.0 °F 55% 30.20 in 10.0 mi SSW 8.1 mph - N/A   Clear
1:37 PM 28.4 °F 21.2 °F 14.0 °F 55% 30.20 in 10.0 mi SSW 6.9 mph - N/A   Clear
1:58 PM 28.4 °F 24.6 °F 14.0 °F 55% 30.20 in 10.0 mi SSW 3.5 mph - N/A   Clear
2:18 PM 28.4 °F 22.2 °F 17.6 °F 64% 30.19 in 10.0 mi South 5.8 mph - N/A   Clear
2:38 PM 28.4 °F 21.2 °F 15.8 °F 59% 30.19 in 10.0 mi SSW 6.9 mph - N/A   Clear
2:58 PM 28.4 °F 24.6 °F 15.8 °F 59% 30.19 in 10.0 mi South 3.5 mph - N/A   Clear
3:18 PM 28.4 °F 21.2 °F 17.6 °F 64% 30.18 in 10.0 mi South 6.9 mph - N/A   Clear
3:38 PM 28.4 °F 23.3 °F 17.6 °F 64% 30.19 in 10.0 mi South 4.6 mph - N/A   Clear
3:58 PM 28.4 °F 24.6 °F 17.6 °F 64% 30.20 in 10.0 mi SSW 3.5 mph - N/A   Clear
4:18 PM 28.4 °F 24.6 °F 17.6 °F 64% 30.20 in 10.0 mi South 3.5 mph - N/A   Clear
4:38 PM 28.4 °F 24.6 °F 17.6 °F 64% 30.19 in 10.0 mi South 3.5 mph - N/A   Clear
4:58 PM 26.6 °F 21.2 °F 17.6 °F 69% 30.19 in 10.0 mi South 4.6 mph - N/A   Clear
5:18 PM 24.8 °F 20.5 °F 17.6 °F 74% 30.18 in 10.0 mi South 3.5 mph - N/A   Clear
5:37 PM 24.8 °F 19.1 °F 17.6 °F 74% 30.18 in 10.0 mi SSE 4.6 mph - N/A   Clear
5:58 PM 26.6 °F - 17.6 °F 69% 30.18 in 10.0 mi Calm Calm - N/A   Clear
6:18 PM 26.6 °F 22.6 °F 17.6 °F 69% 30.18 in 10.0 mi SE 3.5 mph - N/A   Clear
6:37 PM 26.6 °F 22.6 °F 17.6 °F 69% 30.18 in 10.0 mi East 3.5 mph - N/A   Clear
6:58 PM 26.6 °F 22.6 °F 19.4 °F 74% 30.18 in 10.0 mi ESE 3.5 mph - N/A   Clear
7:18 PM 26.6 °F - 19.4 °F 74% 30.19 in 10.0 mi Calm Calm - N/A   Clear
7:37 PM 26.6 °F - 19.4 °F 74% 30.20 in 10.0 mi Calm Calm - N/A   Clear
7:58 PM 26.6 °F 22.6 °F 19.4 °F 74% 30.21 in 10.0 mi SE 3.5 mph - N/A   Clear
8:18 PM 26.6 °F 22.6 °F 19.4 °F 74% 30.21 in 10.0 mi SE 3.5 mph - N/A   Clear
8:38 PM 26.6 °F 22.6 °F 19.4 °F 74% 30.21 in 10.0 mi ESE 3.5 mph - N/A   Scattered Clouds
8:58 PM 26.6 °F 21.2 °F 19.4 °F 74% 30.20 in 10.0 mi ESE 4.6 mph - N/A   Scattered Clouds
9:18 PM 28.4 °F 22.2 °F 21.2 °F 74% 30.20 in 10.0 mi East 5.8 mph - N/A   Mostly Cloudy
9:38 PM 28.4 °F 24.6 °F 21.2 °F 74% 30.20 in 10.0 mi ESE 3.5 mph - N/A   Mostly Cloudy
9:58 PM 28.4 °F - 21.2 °F 74% 30.20 in 10.0 mi Calm Calm - N/A   Overcast
10:18 PM 28.4 °F - 21.2 °F 74% 30.19 in 10.0 mi Calm Calm - N/A   Overcast
10:38 PM 28.4 °F - 21.2 °F 74% 30.18 in 10.0 mi Calm Calm - N/A   Mostly Cloudy
10:58 PM 28.4 °F 24.6 °F 21.2 °F 74% 30.18 in 10.0 mi SE 3.5 mph - N/A   Overcast
11:18 PM 28.4 °F - 21.2 °F 74% 30.18 in 10.0 mi Calm Calm - N/A   Overcast
11:38 PM 30.2 °F 26.7 °F 21.2 °F 69% 30.18 in 10.0 mi South 3.5 mph - N/A   Overcast
11:58 PM 32.0 °F 25.6 °F 21.2 °F 64% 30.19 in 10.0 mi SSW 6.9 mph - N/A   Overcast